Погода в Ла-Рош-сюр-Йоне

Франция     46°38′53″N   1°26′09″W
темп.,
°C
ветер,
м/с
пор.,
м/с
влажн.,
%
обл.,
%
осадки,
мм/ч
давл.,
гПа
погр.,
м
17 сентября, пт
пт1723:00+14сз34912 0.0 101968
02:00+14сз22915 0.0 101814
05:00+13зюз119236 0.0 101610
08:00+13юз229388 0.0 101614
11:00+20юз345869 0.0 1015848
14:00+24юз544330 0.0 10141915
17:00+22юз545079 0.0 10131469
20:00+18ююз467515 0.0 1013224
18 сентября, сб
сб1823:00+16ююз35935 0.0 101489
02:00+16ююв359596 0.4 1013147
05:00+16ююв2397100 2.1 1012104
08:00+16юз2490100 4.1 101397
11:00+19зюз55635 0.1 1014977
14:00+22юз55512 0.3 10131665
17:00+21зюз655098 0.1 10131625
20:00+17зюз486915 0.1 1014323
19 сентября, вс
вс1923:00+14зюз38870 0.0 1015167
02:00+14зсз4109111 0.8 1014337
05:00+13зсз39942 0.3 1015261
08:00+13зсз389488 0.3 1016259
11:00+17сз676923 0.0 10181023
14:00+21з564453 0.1 10171633
17:00+20зсз6754100 0.0 10171266
20:00+17з3677100 0.1 1017218
20 сентября, пн
пн2023:00+15сз2688100 1.8 1017257
02:00+13сз4889100 1.8 1018306
05:00+11сз499555 0.0 1018253
08:00+10сз39965 0.0 1019218
11:00+15ссз467680 0.0 1020568
14:00+19ссз666486 0.4 10201219
17:00+17с567693 0.4 1020782
20:00+16с4980100 0.5 1022328
21 сентября, вт
вт2123:00+14с4119013 0.1 1024295
02:00+12ссв49960 0.1 1024211
05:00+11ссв410920 0.0 1024203
08:00+10ссв410880 0.0 1025199
11:00+16св58544 0.0 1026498
14:00+21св56455 0.0 10261399
17:00+23ссв56360 0.0 10241890
20:00+18ссв510402 0.0 1025243